GW3425 Weather Reports


time (UTC)temp
C
wind
direction
speed
KPH
gust
KPH
rain 1hr
cm
rain 24hr
cm
rain mn
cm
humidity
%
barometer
mb
20260506214509 25 115 9.7 30.6 0.00 0.00 0.00 71 1009.8
20260506213105 25 360 11.3 25.7 0.00 0.00 0.00 71 1009.9
20260506211545 25 351 9.7 20.9 0.00 0.00 0.00 72 1009.9
20260506210047 25 26 9.7 22.5 0.00 0.00 0.00 73 1009.8
20260506204516 25 28 6.4 22.5 0.00 0.00 0.00 74 1009.8
20260506203001 26 74 9.7 20.9 0.00 0.00 0.00 74 1010.2
20260506201552 27 50 8.0 17.7 0.00 0.00 0.00 74 1010.1
20260506200039 26 134 1.6 19.3 0.00 0.00 0.00 77 1009.8
20260506194535 26 336 6.4 16.1 0.00 0.00 0.00 75 1009.8
20260506193016 26 75 4.8 12.9 0.00 0.00 0.00 77 1010.1
20260506191602 26 102 6.4 14.5 0.00 0.00 0.00 77 1010.0
20260506190051 26 259 6.4 17.7 0.00 0.00 0.00 77 1010.2
20260506184538 25 74 3.2 14.5 0.00 0.00 0.00 79 1010.3
20260506183038 25 246 3.2 16.1 0.00 0.00 0.00 80 1010.2
20260506181606 24 287 8.0 14.5 0.00 0.00 0.00 81 1010.4
20260506180053 23 68 3.2 11.3 0.00 0.00 0.00 82 1010.5
20260506174538 22 23 4.8 12.9 0.00 0.00 0.00 83 1010.7
20260506173020 22 17 9.7 19.3 0.00 0.00 0.00 83 1010.5
20260506171505 22 21 9.7 30.6 0.00 0.00 0.00 80 1011.0
20260506170106 26 351 9.7 14.5 0.00 0.00 0.00 81 1010.6
20260506164554 27 5 4.8 12.9 0.00 0.00 0.00 82 1010.7
20260506163025 26 24 4.8 11.3 0.00 0.00 0.00 86 1010.9
20260506161508 25 88 3.2 8.0 0.00 0.00 0.00 89 1011.0
20260506160105 24 142 3.2 8.0 0.00 0.00 0.00 90 1011.0
20260506154542 24 153 0.0 8.0 0.00 0.00 0.00 91 1010.8
20260506153021 24 43 0.0 8.0 0.00 0.00 0.00 91 1010.3
20260506151507 24 55 3.2 8.0 0.00 0.00 0.00 91 1010.0
20260506150107 24 68 0.0 3.2 0.00 0.00 0.00 91 1010.0
20260506144542 23 34 1.6 8.0 0.00 0.00 0.00 92 1009.7
20260506143031 23 32 0.0 6.4 0.00 0.00 0.00 92 1009.8
20260506141524 23 48 0.0 6.4 0.00 0.00 0.00 92 1009.7
20260506140105 23 36 0.0 8.0 0.00 0.00 0.00 93 1009.2
20260506134551 23 13 0.0 9.7 0.00 0.00 0.00 93 1008.9
20260506133040 23 32 1.6 6.4 0.00 0.00 0.00 92 1008.8
20260506131521 23 33 0.0 6.4 0.00 0.00 0.00 93 1008.8
20260506130005 23 50 3.2 8.0 0.00 0.00 0.00 92 1008.7
20260506124556 23 47 1.6 6.4 0.00 0.00 0.00 92 1008.8
20260506123042 23 40 0.0 3.2 0.00 0.00 0.00 91 1008.8
20260506121527 23 47 0.0 1.6 0.00 0.00 0.00 91 1008.7
20260506120025 23 128 0.0 6.4 0.00 0.00 0.00 91 1008.5
20260506114602 23 50 0.0 3.2 0.00 0.00 0.00 91 1008.5
20260506113049 23 57 0.0 1.6 0.00 0.00 0.00 91 1008.2
20260506111539 23 79 0.0 6.4 0.00 0.00 0.00 91 1008.4
20260506110024 23 105 0.0 0.0 0.00 0.00 0.00 91 1008.1
20260506104506 23 73 0.0 3.2 0.00 0.00 0.00 90 1008.0
20260506103058 23 94 0.0 3.2 0.00 0.00 0.00 90 1008.2
20260506101543 23 92 0.0 6.4 0.00 0.00 0.00 90 1007.9
20260506100028 23 119 0.0 3.2 0.00 0.00 0.00 90 1007.9
20260506094514 23 107 0.0 8.0 0.00 0.00 0.00 90 1007.9
20260506093104 23 104 0.0 6.4 0.00 0.00 0.00 90 1007.6
20260506091551 23 93 0.0 3.2 0.00 0.00 0.00 90 1007.4
20260506090037 23 78 0.0 3.2 0.00 0.00 0.00 90 1007.6
20260506084545 23 112 0.0 3.2 0.00 0.00 0.00 90 1007.7
20260506083006 23 101 0.0 1.6 0.00 0.00 0.00 90 1007.6
20260506081601 23 101 0.0 3.2 0.00 0.00 0.00 90 1007.6
20260506073014 23 155 0.0 3.2 0.00 0.00 0.00 90 1007.9
20260506071604 23 128 0.0 6.4 0.00 0.00 0.00 90 1008.1
20260506061507 24 114 0.0 9.7 0.00 0.00 0.00 89 1008.3
20260506050104 25 44 0.0 6.4 0.00 0.00 0.00 87 1008.3
20260506044547 25 89 3.2 9.7 0.00 0.00 0.00 86 1008.4
20260506043033 25 137 0.0 9.7 0.00 0.00 0.00 86 1008.3
20260506041519 25 109 3.2 8.0 0.00 0.00 0.00 86 1008.1
20260506040004 25 151 1.6 8.0 0.00 0.00 0.00 85 1008.0
20260506034557 25 121 3.2 11.3 0.00 0.00 0.00 85 1008.1
20260506033040 25 116 0.0 3.2 0.00 0.00 0.00 85 1007.6
20260506031532 25 73 1.6 9.7 0.00 0.00 0.00 84 1007.5
20260506030004 25 178 0.0 6.4 0.00 0.00 0.00 84 1007.1
20260506024555 25 102 1.6 8.0 0.00 0.00 0.00 83 1006.7
20260506023058 26 40 1.6 12.9 0.00 0.00 0.00 82 1006.6
20260506021541 26 119 1.6 14.5 0.00 0.00 0.00 82 1006.6
20260506020013 26 229 1.6 9.7 0.00 0.00 0.00 81 1006.2
20260506014606 27 149 1.6 11.3 0.00 0.00 0.00 80 1006.0
20260506013059 27 102 1.6 9.7 0.00 0.00 0.00 78 1006.0
20260506011533 27 115 0.0 4.8 0.00 0.00 0.00 77 1005.9
20260506010019 27 128 0.0 3.2 0.00 0.00 0.00 76 1005.7
20260506004505 28 128 0.0 6.4 0.00 0.00 0.00 75 1005.5
20260506003057 28 205 0.0 6.4 0.00 0.00 0.00 74 1005.5
20260506001541 28 146 0.0 1.6 0.00 0.00 0.00 74 1005.5
20260506000026 28 101 0.0 12.9 0.00 0.00 0.00 73 1005.2
20260505234514 28 129 0.0 6.4 0.00 0.00 0.00 73 1005.1
20260505233106 28 237 1.6 9.7 0.00 0.00 0.00 73 1005.0
20260505231604 29 360 0.0 11.3 0.00 0.00 0.00 72 1004.8
20260505230034 29 169 1.6 9.7 0.00 0.00 0.00 70 1004.8
20260505224518 29 206 4.8 12.9 0.00 0.00 0.00 70 1004.8
20260505223003 29 238 3.2 9.7 0.00 0.00 0.00 71 1005.0
20260505221600 29 230 4.8 17.7 0.00 0.00 0.00 69 1005.1
20260505220039 28 187 0.0 8.0 0.00 0.00 0.00 72 1005.2